Theta_e
328 325 328 327 322 321 322 317 313 316 323 320 313 314 319 314 313 318 317 319 332 336 336 342 342 342 344 345 346 346 346 348 348 350 350 347 348 348 347 349 348 348 348 347 346 346 349 350 350 351 352 354 356 358 359 359 359 360 360 360 359 359 359
326 326 327 327 327 327 321 313 315 322 323 322 318 314 314 311 312 318 315 313 320 321 331 351 348 341 345 345 347 347 346 348 347 349 350 348 348 348 347 349 349 348 349 348 347 347 348 351 350 351 352 353 355 357 359 359 359 360 361 361 360 360 360
326 328 326 324 327 327 322 319 322 323 315 312 316 314 313 311 312 314 313 315 318 317 330 350 343 340 347 344 346 348 346 348 347 346 349 348 348 349 348 349 349 349 349 348 347 347 348 350 351 352 353 353 355 356 358 359 359 360 360 361 361 361 360
325 327 324 318 320 326 326 324 322 325 318 312 313 315 314 315 315 315 314 315 319 327 340 345 339 344 347 342 346 349 345 348 347 345 347 348 348 349 348 349 349 350 349 348 348 347 348 350 352 352 353 354 355 356 358 359 360 360 360 361 361 361 361
321 320 323 320 320 323 322 319 317 317 317 316 315 314 315 316 319 321 317 313 321 343 353 344 342 346 343 342 345 346 346 347 345 346 346 346 348 348 348 349 349 349 349 348 347 348 349 350 352 353 354 355 356 357 358 360 360 361 361 361 361 361 361
315 318 326 327 325 326 323 319 317 316 316 316 311 313 317 314 315 323 322 314 323 351 356 343 344 345 342 342 343 343 346 346 345 346 346 346 348 348 348 348 348 349 350 350 348 349 349 350 353 353 354 356 357 357 359 360 361 361 361 361 361 362 362
319 323 328 326 325 328 326 323 323 321 320 315 309 315 322 315 312 321 321 314 325 357 365 348 344 346 342 340 341 343 344 343 345 346 345 346 348 348 348 347 347 349 350 351 350 349 350 351 353 354 355 356 357 358 360 360 362 362 362 362 362 362 362
321 324 327 327 327 327 324 323 326 323 320 318 316 325 331 319 311 315 314 311 322 355 367 347 346 355 351 342 340 341 343 344 346 345 345 347 347 349 349 347 349 349 350 353 354 353 352 351 353 355 355 357 357 358 359 360 362 363 363 363 363 363 363
317 318 320 320 322 324 322 323 325 324 324 322 320 325 326 318 315 315 311 309 324 359 363 335 339 350 347 348 346 342 343 346 347 346 347 348 348 349 349 349 350 350 352 356 357 357 353 351 353 355 355 357 357 357 359 360 362 363 363 364 364 363 363
314 314 315 320 322 321 322 324 323 323 325 321 318 317 313 315 321 319 313 314 329 359 355 329 330 333 331 345 352 345 344 346 348 349 348 349 350 350 351 351 351 352 354 357 358 358 354 351 353 355 355 357 357 357 359 360 361 364 364 365 365 364 364
315 314 321 335 335 320 316 321 321 322 325 321 320 316 310 319 324 317 325 336 330 332 338 330 331 329 325 335 345 348 349 347 348 351 350 350 351 350 351 351 351 353 355 355 357 357 355 351 352 355 355 356 357 357 358 359 361 363 364 365 365 365 365
320 321 325 333 333 321 317 320 319 321 325 322 320 314 314 327 320 308 331 354 329 322 340 338 331 332 331 336 343 349 353 348 346 350 350 351 349 349 351 351 351 354 354 354 355 355 355 352 352 354 355 356 357 357 358 359 360 362 363 365 365 365 365
323 325 325 326 329 327 323 323 320 321 324 320 318 317 320 329 318 309 332 355 338 340 355 342 333 335 336 343 348 347 349 349 347 350 351 350 348 347 350 350 351 353 353 355 354 354 354 353 351 353 354 355 357 357 357 358 359 361 363 364 365 366 365
322 324 326 325 326 327 325 324 323 322 323 322 320 321 324 325 322 321 335 346 344 352 358 345 342 353 353 353 352 348 348 348 347 353 356 353 349 347 348 350 351 351 352 354 355 354 355 354 352 352 354 355 356 357 357 358 358 360 362 363 365 365 366
318 322 326 325 324 325 323 323 327 323 322 324 321 322 325 323 324 326 330 333 334 344 354 350 353 368 363 348 348 358 361 356 352 352 354 352 350 348 348 349 351 351 352 353 354 356 357 354 352 352 354 355 356 357 357 357 358 359 360 363 364 365 365
316 319 323 323 322 324 319 319 324 324 321 321 320 323 326 324 325 328 326 325 330 340 348 345 344 357 354 342 353 373 374 372 369 361 355 352 351 351 351 353 355 354 353 355 356 357 356 354 352 352 354 355 356 356 357 357 357 359 360 362 363 364 365
322 321 321 321 320 317 315 317 322 326 325 326 325 326 328 328 329 328 322 323 335 344 343 336 336 342 344 349 362 365 365 377 382 373 364 358 353 354 356 357 359 357 354 355 357 358 356 353 352 354 354 355 356 357 357 357 357 357 359 361 362 363 365
325 325 322 322 317 313 317 325 327 328 327 328 329 329 331 330 327 332 333 333 338 342 337 337 342 340 338 344 351 350 350 362 373 374 370 363 357 358 357 356 357 356 356 357 356 355 355 354 355 355 354 356 357 357 357 358 357 357 358 360 361 363 364
327 329 324 318 315 322 337 342 334 330 329 330 336 342 349 346 336 345 360 353 345 344 340 343 351 347 341 344 349 349 347 351 359 365 367 365 362 359 359 358 357 355 357 359 358 355 354 355 356 356 355 356 357 357 358 357 357 357 358 359 361 362 363
327 327 322 318 323 335 348 344 333 334 334 332 338 347 360 363 352 357 369 361 354 355 349 347 348 342 343 350 353 353 353 352 351 350 352 357 359 359 360 362 365 364 358 355 355 354 353 355 358 358 357 357 358 358 359 358 357 358 358 358 360 361 363
327 326 321 321 325 328 336 340 337 338 338 335 343 350 358 365 360 357 362 364 363 360 358 359 349 340 349 360 355 352 355 355 352 349 346 346 351 358 363 362 362 360 354 353 353 353 353 355 357 359 359 358 359 359 359 358 359 358 358 358 359 361 362
330 327 322 321 321 323 335 347 344 343 344 345 354 357 357 365 365 357 360 369 368 363 368 373 361 354 369 374 358 354 356 354 354 356 354 352 353 356 359 362 361 354 351 354 354 355 358 358 357 359 360 359 360 360 359 360 359 359 359 358 358 360 361
329 324 322 322 320 326 345 355 343 339 345 349 355 355 354 366 367 356 358 367 366 364 370 374 372 378 388 374 358 355 356 353 353 355 357 358 359 358 355 358 360 353 350 355 355 356 360 361 360 361 361 360 361 361 361 361 360 359 359 358 358 360 360
330 326 323 321 322 330 347 350 340 338 345 348 344 340 347 364 364 356 358 361 361 361 361 364 372 382 383 369 357 354 353 351 351 353 354 356 358 359 356 355 356 349 347 354 359 357 357 360 362 364 363 363 362 361 362 361 360 360 360 359 359 359 360
335 331 325 323 328 340 348 344 341 342 342 339 334 333 348 363 361 359 361 359 358 358 358 361 365 365 363 358 352 349 349 349 350 350 351 351 352 353 353 353 355 354 350 351 355 356 356 358 361 362 364 364 362 362 363 362 361 362 361 360 360 359 360
340 337 333 328 330 340 342 339 343 344 335 334 337 344 356 359 357 360 359 356 356 356 354 356 356 353 351 350 348 347 347 348 348 348 348 349 349 349 350 350 351 352 353 354 356 358 359 360 360 362 364 364 363 363 363 362 363 362 362 362 361 359 360
340 342 344 339 336 339 339 339 348 352 345 344 349 355 355 353 354 356 354 353 354 353 351 352 350 348 348 347 347 347 346 346 347 346 346 347 347 347 348 347 348 351 354 354 353 357 361 362 363 364 364 364 364 364 364 364 364 364 364 363 362 361 361
342 345 349 346 342 340 338 339 347 352 351 350 353 353 351 352 352 351 351 351 349 348 349 349 347 347 347 346 346 346 346 345 346 346 346 346 345 345 345 345 346 348 351 351 351 354 359 361 363 365 364 364 364 364 365 366 365 365 365 364 364 365 364
343 343 344 343 340 338 337 338 342 344 345 346 347 348 349 349 347 347 347 346 345 345 346 346 346 347 346 345 345 344 344 344 344 345 345 345 345 346 344 343 344 346 348 349 348 349 352 355 359 362 364 363 362 362 365 366 366 367 367 367 367 368 367
343 342 342 340 338 338 337 336 335 336 337 339 339 340 341 341 339 339 338 337 338 339 339 339 341 342 343 345 345 344 344 344 343 343 343 342 343 345 345 344 344 345 346 347 347 347 348 349 351 355 358 360 360 361 363 366 367 368 369 370 371 370 369
342 343 345 342 339 338 338 336 334 333 332 332 332 333 333 332 331 331 331 331 331 331 332 334 334 335 337 340 342 343 343 343 343 343 342 341 342 343 344 345 345 345 345 346 347 347 347 347 349 351 353 354 354 356 359 363 365 367 368 370 370 369 369
342 344 344 343 341 339 337 336 337 336 333 330 329 329 329 329 328 328 328 328 328 328 329 330 330 330 332 333 335 337 338 339 339 340 341 342 342 342 342 344 345 345 344 344 345 345 345 346 347 350 351 352 351 351 354 356 359 363 365 365 365 365 365
344 344 342 341 343 342 338 337 336 336 335 333 330 328 327 327 328 328 327 327 327 327 328 328 329 329 329 330 331 332 332 333 334 335 337 340 342 343 342 343 344 344 342 341 342 342 342 343 344 347 350 351 351 351 352 354 356 359 359 359 359 358 356
345 345 342 342 344 343 340 338 336 334 333 333 331 330 328 327 327 327 327 326 326 326 326 326 327 328 329 330 330 330 331 331 332 333 335 338 340 342 343 342 342 342 341 340 340 341 341 342 343 345 347 349 350 351 352 353 353 354 353 352 350 349 348
343 342 340 342 343 341 338 338 336 335 334 333 331 329 328 327 327 326 326 326 326 326 325 325 325 328 329 330 330 330 329 328 329 332 334 336 338 341 343 343 342 341 341 341 341 341 342 343 343 345 347 348 347 347 348 348 348 349 348 347 345 345 344
339 338 338 340 341 339 337 336 336 336 337 334 331 330 330 328 327 325 325 326 326 326 326 325 325 327 329 330 329 329 328 327 328 330 332 334 336 338 340 343 343 343 342 342 341 342 343 343 344 346 346 346 346 346 346 346 344 344 344 344 343 343 342
337 337 336 337 339 338 337 336 336 336 336 334 331 331 332 331 329 327 326 326 326 325 325 326 325 326 329 331 330 327 326 326 326 328 330 332 333 334 337 340 342 344 344 344 343 343 344 344 345 345 346 346 346 345 346 345 344 342 341 341 341 341 341
Wind_Speed
12 12 8 9 9 6 5 6 8 6 6 7 4 4 3 2 3 5 4 4 4 3 5 6 10 15 17 17 18 18 17 16 16 14 15 16 16 17 17 17 17 18 18 20 24 29 31 33 35 38 40 42 43 42 42 43 43 43 44 45 44 44 43
14 14 11 11 10 8 5 6 8 4 5 5 4 2 3 4 5 5 4 7 5 3 6 4 6 12 15 15 17 17 17 17 17 16 17 17 18 18 18 19 18 18 18 19 23 29 33 36 38 40 43 43 44 43 43 43 42 42 43 44 44 44 43
12 10 11 11 10 11 8 6 6 5 4 5 3 4 5 6 6 4 5 7 5 5 6 3 7 12 14 15 15 16 18 19 18 18 18 18 18 17 17 18 17 17 18 18 22 28 33 37 39 41 43 42 42 42 43 44 44 45 45 44 43 43 43
11 8 8 9 9 10 8 5 4 4 5 6 4 4 5 5 5 4 5 5 5 6 6 6 9 12 13 14 14 16 19 21 19 18 17 17 17 16 15 16 16 17 19 20 25 30 33 36 38 39 40 40 41 41 41 42 43 43 44 44 43 42 42
8 7 7 9 10 9 8 7 7 5 3 3 4 4 3 5 5 4 4 5 6 5 5 9 11 11 13 15 16 17 20 21 21 19 18 17 17 16 16 16 16 18 18 19 26 32 33 34 35 35 37 39 39 39 40 41 41 41 42 42 42 42 41
7 6 6 11 14 12 10 9 9 8 5 4 5 5 3 2 5 5 5 5 7 6 4 8 10 9 11 14 16 17 18 21 20 18 19 18 17 17 17 17 17 17 17 17 21 27 28 28 30 33 36 36 37 38 40 40 41 41 42 42 42 42 40
8 8 7 10 17 17 13 11 10 8 6 5 6 6 3 2 4 4 4 4 7 6 5 7 9 8 9 12 16 16 17 19 19 19 19 19 18 18 18 18 17 16 15 15 18 22 24 26 30 33 35 35 38 40 39 39 40 42 43 43 43 42 40
8 10 8 6 12 15 13 12 11 9 8 7 6 6 4 3 5 3 3 6 7 6 6 7 7 6 7 8 12 15 14 15 17 20 20 18 18 19 19 18 16 14 14 13 14 16 19 23 28 31 34 35 37 37 37 39 41 42 42 41 41 41 40
8 10 8 6 7 10 10 9 12 14 13 10 6 4 4 3 6 6 5 7 7 6 5 7 9 7 5 4 7 11 12 13 15 17 17 17 18 18 18 17 15 14 13 12 13 14 16 21 26 29 33 34 35 36 38 39 40 40 41 41 40 41 41
10 9 9 7 6 7 7 8 13 17 16 15 9 4 5 6 5 6 6 6 6 7 5 8 14 15 8 5 4 7 9 12 14 14 14 15 16 17 18 17 15 14 12 12 15 15 16 21 26 29 31 33 34 36 38 39 38 38 40 40 40 40 40
12 11 8 6 6 8 9 8 12 16 17 17 12 6 6 6 4 4 6 5 4 7 7 8 13 16 12 9 6 7 7 10 12 13 14 14 14 15 16 16 15 14 13 15 16 16 17 22 27 30 32 34 35 35 36 37 38 38 40 40 39 40 40
15 15 13 9 8 10 13 12 12 16 18 17 14 11 8 7 6 8 8 6 6 8 8 9 13 14 10 8 7 7 9 9 9 10 12 12 13 14 14 14 15 15 15 16 17 16 17 21 27 30 31 34 35 35 36 37 37 38 39 39 40 40 40
18 17 18 17 10 8 12 14 14 17 19 19 17 14 9 10 8 10 8 9 9 8 7 9 12 12 8 7 9 8 9 9 8 6 8 11 13 14 15 15 15 15 16 16 17 17 17 18 22 26 28 31 32 33 34 36 37 39 40 40 39 39 39
20 18 18 20 16 9 9 12 14 17 20 21 20 16 12 12 11 8 9 11 10 7 8 9 10 9 7 6 6 6 8 10 11 9 9 12 14 15 16 17 16 16 16 16 16 16 15 15 19 22 25 28 31 32 34 36 38 39 40 40 39 39 40
17 19 18 19 19 14 10 10 12 15 18 20 20 16 12 9 8 7 9 11 10 7 7 8 8 7 5 3 4 5 7 9 12 13 13 15 17 16 16 16 15 15 15 15 15 15 15 16 19 23 25 28 31 32 33 35 38 40 40 39 39 40 41
10 16 20 20 19 14 11 11 12 12 14 15 15 13 10 8 8 8 7 8 7 8 8 8 7 7 6 6 6 5 6 6 8 10 12 13 14 14 13 12 11 12 13 14 15 15 15 17 21 24 27 28 29 31 33 37 40 39 39 39 39 40 41
6 13 19 18 15 12 12 12 12 10 9 9 8 9 12 12 10 9 8 8 8 8 8 9 8 7 7 7 6 4 6 7 8 9 9 10 11 12 12 11 11 12 12 12 14 15 15 18 25 30 31 29 30 34 38 40 39 38 39 40 40 40 40
7 9 14 13 10 12 10 6 10 13 11 10 7 6 8 10 8 5 4 6 8 9 9 10 9 6 5 4 1 4 2 4 7 9 11 11 12 12 13 14 14 14 13 12 12 15 19 25 30 34 34 34 37 40 40 39 38 38 39 40 40 39 38
6 6 9 12 11 11 6 3 6 12 13 13 9 2 3 4 5 2 2 1 4 5 6 8 8 8 7 6 9 11 8 4 2 6 8 9 10 10 11 12 13 13 13 13 12 15 23 30 33 32 32 35 37 37 36 36 38 40 40 39 38 38 38
4 4 5 9 8 5 3 5 1 6 9 11 9 5 6 7 5 2 5 3 2 2 2 4 7 11 13 13 11 10 10 8 5 2 2 3 4 7 8 9 10 10 11 14 16 21 27 30 29 29 33 37 37 34 34 35 37 39 39 37 37 37 37
3 3 4 3 2 0 2 2 1 3 6 9 10 5 3 7 5 1 7 7 5 5 3 2 3 8 11 12 9 10 12 10 8 7 7 5 4 5 6 6 8 11 15 18 20 24 26 27 28 31 35 37 35 32 32 33 34 36 35 34 35 36 37
2 3 3 2 4 4 4 4 4 3 7 11 12 8 1 6 6 3 4 7 4 4 4 3 1 4 8 7 4 7 10 9 9 9 9 8 7 6 7 6 6 10 15 20 22 22 21 22 28 32 32 32 31 28 28 30 30 30 31 33 36 37 38
3 3 4 3 4 5 6 5 4 5 10 12 11 9 1 5 6 6 3 7 5 4 6 6 5 6 5 1 2 5 7 7 8 8 9 9 8 7 7 7 6 10 14 16 18 19 18 20 26 28 26 26 26 24 26 29 29 28 29 34 37 38 41
5 4 4 3 2 2 3 0 2 2 7 11 9 5 4 4 5 5 4 7 6 5 6 8 8 7 3 2 2 4 4 5 7 8 9 9 9 8 10 12 12 10 12 12 11 12 15 20 24 24 25 25 24 24 26 27 26 28 33 39 41 42 42
5 4 4 2 1 1 7 11 13 9 1 8 5 5 6 2 2 4 6 8 7 7 8 8 6 4 3 2 1 4 5 7 8 8 7 7 8 9 9 12 16 14 9 7 10 13 14 14 12 11 15 19 20 24 26 25 27 33 40 41 40 39 38
5 4 3 2 3 4 13 19 17 9 1 5 5 4 3 6 7 6 8 9 8 9 10 8 6 5 4 4 4 5 7 8 8 9 10 9 10 11 12 14 15 13 11 8 3 6 10 12 11 10 12 11 11 13 14 18 28 37 40 38 36 35 35
4 4 3 2 3 4 17 20 12 4 2 5 7 6 6 6 8 8 9 8 6 8 9 8 6 6 6 6 6 7 8 9 8 9 11 10 9 10 11 14 15 11 7 7 8 7 2 5 11 15 17 14 10 8 9 14 20 21 22 28 32 33 34
1 2 3 4 2 8 15 13 5 4 5 4 7 9 7 6 7 7 7 7 6 7 9 8 7 8 8 8 7 7 9 10 9 10 11 11 10 10 10 13 16 13 8 7 9 11 8 4 6 11 15 15 12 11 12 16 17 15 16 22 27 28 30
1 2 3 4 5 9 11 10 6 6 9 8 9 11 9 6 5 5 6 7 7 7 9 9 9 9 8 9 10 9 10 10 9 10 11 11 10 11 11 14 16 14 10 10 12 14 14 11 4 4 10 13 13 12 14 18 20 19 19 23 25 26 28
1 3 4 4 7 11 12 11 10 10 9 7 9 12 10 7 7 7 7 8 7 7 8 9 9 8 8 9 10 9 9 9 9 9 9 10 10 10 10 13 15 13 12 12 12 13 16 16 12 7 1 4 7 10 15 18 20 22 22 23 25 25 25
0 1 3 3 6 10 12 11 11 13 12 9 7 11 10 8 9 9 9 9 9 8 9 10 9 7 7 8 8 7 7 8 9 9 9 8 9 9 9 11 12 10 9 10 10 11 13 16 15 12 7 5 4 4 10 13 16 21 24 24 25 25 25
1 2 4 2 3 6 11 11 9 9 11 10 8 8 10 10 10 10 9 9 9 9 9 9 10 9 7 7 7 7 7 8 8 8 9 8 8 9 11 11 10 9 7 8 8 8 9 12 14 14 10 7 5 3 5 7 10 15 20 22 22 25 26
1 2 3 1 3 6 10 12 11 10 9 8 7 6 8 11 12 11 11 9 9 10 10 9 10 11 8 7 8 8 8 9 9 8 8 8 8 9 11 10 9 8 7 7 8 8 8 10 12 12 12 9 5 2 2 5 8 13 18 19 18 20 23
2 1 1 2 3 2 5 7 10 12 11 9 7 5 5 8 9 10 12 11 10 11 10 9 10 11 8 7 9 10 9 9 10 10 10 9 8 9 11 11 9 8 7 7 8 8 8 9 11 12 13 13 10 6 3 2 3 12 19 23 22 21 22
2 1 2 2 4 3 3 5 8 10 11 10 7 6 7 7 5 6 10 12 11 10 9 8 10 11 8 8 9 11 10 9 10 11 12 11 10 11 12 11 10 10 10 9 10 10 10 10 11 13 14 16 17 15 14 16 13 3 11 18 25 27 25
2 1 3 3 4 5 4 5 8 9 7 7 6 6 7 7 6 6 8 10 10 9 8 7 8 9 9 9 10 11 10 10 10 11 14 16 16 16 16 14 11 10 11 11 11 12 12 13 14 15 15 15 17 18 19 21 24 19 11 8 20 28 27
3 2 2 2 4 6 6 6 7 6 4 4 5 6 8 8 7 7 8 8 7 7 7 7 6 7 9 9 9 10 10 9 10 12 15 18 20 20 19 19 16 14 12 13 13 12 12 14 16 16 15 14 13 16 19 19 20 22 21 19 23 26 25
Wind_Direction
223 220 210 186 181 183 199 186 189 195 148 154 211 253 239 166 210 241 223 242 279 283 267 238 206 203 197 198 203 199 195 191 188 192 192 191 192 191 191 190 191 191 190 193 194 193 193 193 192 192 192 192 192 192 192 193 194 194 195 196 198 200 202
233 222 222 219 198 168 166 201 200 151 108 157 181 208 245 218 226 256 232 235 261 251 255 261 203 205 203 197 197 196 192 190 193 196 196 194 190 190 191 190 191 191 191 194 195 194 194 193 193 193 193 193 193 193 193 193 193 194 196 197 198 200 201
230 219 218 232 222 191 181 190 187 160 163 190 179 180 206 211 221 263 258 239 227 206 231 240 196 202 204 197 193 192 191 193 199 199 198 197 192 189 191 191 191 192 193 194 194 195 195 195 194 194 193 193 193 194 194 193 194 195 196 197 199 200 201
218 211 205 216 226 212 196 181 181 183 184 186 192 191 180 185 207 228 239 241 236 218 210 206 212 208 199 194 191 192 196 198 200 200 198 198 196 192 191 193 194 193 195 196 194 195 195 194 194 193 191 192 193 194 194 194 196 196 196 197 198 200 201
216 211 205 197 201 206 201 196 198 200 183 168 193 208 168 157 178 193 208 232 252 246 201 195 213 211 198 196 193 195 201 202 201 199 198 198 197 195 192 193 195 195 196 196 195 196 195 192 192 190 190 192 193 193 194 194 195 195 196 197 198 199 201
228 225 214 191 191 198 200 203 203 192 170 139 179 236 276 151 173 177 185 233 260 252 197 194 212 210 200 200 198 200 203 202 202 200 198 199 196 196 197 195 197 197 195 194 195 195 192 188 187 189 191 192 192 193 194 194 194 195 197 197 198 199 199
237 233 229 203 198 198 197 206 205 186 174 153 171 220 258 229 217 183 164 233 264 252 206 204 221 209 199 205 201 204 207 202 201 199 198 199 196 196 198 199 200 198 193 191 190 188 186 185 187 189 190 191 193 195 194 193 195 197 197 197 198 198 199
254 248 256 249 214 200 200 209 201 189 194 177 167 188 173 198 230 191 184 238 261 267 225 222 242 203 185 214 210 203 208 204 200 199 196 197 197 196 198 199 201 199 192 185 182 184 186 187 187 188 189 192 194 194 193 193 196 197 197 197 197 197 198
241 247 252 261 234 213 209 206 198 200 197 174 164 175 155 218 228 177 187 234 253 277 237 221 252 237 183 220 219 199 205 206 200 198 195 194 195 196 196 196 198 194 185 179 180 184 186 186 187 188 191 193 194 193 194 195 197 196 196 196 196 196 197
210 222 230 221 204 211 222 203 195 201 195 181 177 168 180 225 227 168 189 229 254 284 254 209 237 247 245 254 219 179 196 208 198 191 193 195 194 195 194 193 194 189 180 180 185 186 186 186 186 188 191 193 194 195 196 196 196 195 195 196 195 195 196
207 207 220 211 165 184 215 205 194 199 198 192 183 176 197 198 176 197 211 195 212 260 247 211 227 241 250 256 221 170 181 204 198 193 195 194 193 195 195 193 191 185 181 185 188 187 187 188 188 188 190 192 194 195 196 196 196 194 195 196 195 195 196
207 203 213 214 174 183 204 199 192 198 200 194 189 202 200 149 155 231 225 178 197 240 239 223 230 235 240 249 232 192 178 186 193 198 196 193 197 198 196 195 191 185 186 189 189 189 189 190 190 190 191 193 194 194 195 195 195 194 195 195 195 195 196
208 201 210 215 201 188 200 199 192 194 199 198 200 207 186 150 184 223 202 181 206 233 239 234 238 239 230 228 228 213 189 171 158 167 185 198 209 203 195 197 194 190 192 191 189 190 189 189 191 191 193 194 194 195 195 194 194 195 195 196 196 195 196
210 203 208 215 215 199 196 206 199 192 197 201 204 208 189 179 202 204 178 195 215 222 223 226 238 244 232 213 208 204 194 175 157 154 177 203 212 207 201 199 195 194 194 191 189 189 188 190 191 191 193 193 193 195 194 193 195 197 196 196 197 196 198
213 207 203 210 218 204 189 208 209 198 200 200 204 208 194 187 210 201 183 204 229 245 231 224 235 240 220 171 159 180 190 176 166 171 187 204 209 206 206 204 199 198 194 189 188 186 187 191 191 192 194 194 195 196 195 195 197 197 196 196 198 199 201
224 210 202 208 218 213 205 214 211 202 201 200 203 203 188 181 195 195 191 204 232 251 243 234 233 218 193 170 160 180 193 166 163 180 192 203 205 201 204 206 202 201 196 191 188 186 188 190 190 194 195 194 195 195 195 197 198 197 196 197 199 202 203
263 215 200 203 210 217 229 223 199 189 197 202 210 209 201 197 185 181 202 213 215 219 220 223 221 203 200 198 178 191 205 179 168 177 184 193 196 193 194 195 194 197 198 196 192 189 188 188 192 197 196 193 195 198 198 199 197 194 196 199 201 203 203
282 229 187 179 199 217 233 215 170 174 188 188 192 214 220 220 210 191 213 229 218 209 201 203 204 195 203 211 106 34 328 213 190 180 179 184 189 190 191 192 192 192 191 193 194 192 191 193 198 200 197 196 200 201 200 197 194 195 198 200 202 203 202
274 258 162 167 205 217 236 268 185 178 178 167 154 108 349 285 260 222 68 312 247 222 202 185 165 140 117 80 52 40 24 349 236 196 194 189 183 185 192 196 197 192 188 189 191 195 198 200 201 199 198 201 204 204 200 196 194 196 199 200 202 202 202
264 270 181 184 212 228 301 318 256 151 153 148 124 64 358 324 304 179 146 156 166 153 211 204 151 125 99 68 41 24 20 16 12 355 270 233 201 194 192 193 196 195 193 195 197 201 203 204 202 199 200 203 204 202 200 197 197 199 199 200 202 201 201
220 236 228 198 175 248 321 316 224 163 161 154 132 109 306 306 327 125 147 143 144 144 152 256 190 129 93 65 31 3 3 5 9 14 7 345 301 250 222 203 202 205 205 204 206 207 205 204 203 202 204 204 202 200 198 198 200 200 199 201 202 202 202
223 194 210 174 151 192 233 243 238 186 133 135 125 107 337 306 333 348 125 121 121 129 98 38 358 93 71 55 20 349 347 350 4 13 10 1 344 308 282 262 238 225 215 211 212 212 208 208 208 207 206 204 199 196 197 197 200 200 201 204 203 203 204
265 199 196 196 171 206 229 222 211 153 130 123 102 85 20 286 325 345 55 89 74 76 81 66 69 84 81 61 308 330 334 347 7 13 5 1 3 354 333 316 286 250 230 222 222 216 207 209 213 210 206 201 196 196 197 197 198 200 204 207 206 204 205
265 233 207 202 174 237 250 280 322 222 140 110 89 106 212 264 327 355 53 76 63 61 78 72 69 80 119 189 287 324 332 0 18 23 13 356 354 3 5 358 341 296 245 222 222 224 218 219 219 211 201 195 194 199 201 199 198 202 207 209 209 208 207
305 261 214 198 145 22 1 355 331 303 147 101 111 192 202 166 52 29 56 72 65 57 67 73 75 81 102 114 15 343 7 26 25 24 20 5 358 359 3 9 6 346 310 250 217 219 225 233 239 223 203 198 201 204 204 200 201 207 210 211 211 209 207
319 280 242 190 141 57 0 341 322 307 206 161 178 184 150 113 95 68 60 66 67 68 71 79 95 100 84 72 46 21 27 34 26 18 17 17 10 360 358 7 15 9 354 341 292 233 228 225 219 205 199 207 221 223 220 214 212 213 212 211 210 209 207
307 301 328 63 145 338 341 333 323 352 69 176 157 114 93 91 85 79 72 61 59 75 79 76 80 80 66 54 44 31 29 31 29 26 23 19 10 1 359 0 3 8 15 15 21 30 36 206 200 190 184 185 196 207 223 231 232 233 226 214 208 207 206
307 309 345 25 332 311 327 329 324 35 54 114 121 102 93 80 71 78 79 59 50 71 80 72 61 55 49 42 38 38 36 30 26 26 24 21 15 5 358 354 356 4 14 14 23 37 50 90 166 182 180 177 179 186 199 213 223 234 234 220 210 206 204
211 227 268 313 324 321 332 340 352 41 64 82 93 94 93 81 68 74 81 71 54 56 69 70 57 47 43 37 33 38 38 31 28 28 24 22 17 9 3 1 2 11 26 28 27 29 26 28 47 182 183 176 177 183 191 198 201 201 206 208 205 201 199
237 222 249 300 337 337 341 351 3 26 48 67 86 91 89 83 80 80 81 82 70 57 66 74 65 52 49 46 42 40 38 33 28 27 24 20 15 12 10 5 5 17 38 42 41 35 25 21 20 9 309 196 199 198 191 191 191 187 185 189 192 193 194
333 254 280 334 354 337 342 0 12 18 21 23 59 87 93 92 90 88 89 91 89 79 76 81 79 65 50 51 50 42 39 38 30 24 24 18 11 10 9 6 9 26 49 53 51 45 34 28 27 21 10 349 318 247 206 199 196 189 183 182 181 181 182
113 225 265 309 37 354 353 5 14 20 24 17 27 70 95 99 96 95 96 97 97 92 85 88 89 77 56 53 57 46 38 37 31 26 23 15 8 8 7 10 23 40 53 58 61 59 47 38 35 31 21 6 343 289 226 214 204 190 182 181 179 173 169
275 245 257 266 69 23 5 4 3 7 19 19 16 42 84 98 101 100 95 92 93 93 88 85 84 77 61 50 54 53 45 36 28 25 22 16 14 12 8 15 38 60 69 69 69 69 61 52 49 43 33 22 6 318 223 209 205 188 170 164 166 161 150
230 229 211 160 124 74 19 10 7 5 4 7 7 13 46 77 93 101 100 93 85 82 81 81 81 77 64 49 52 54 48 39 32 27 24 21 19 17 15 18 29 43 60 74 75 72 63 55 53 47 37 32 30 33 56 53 249 211 179 153 140 137 131
244 298 52 93 118 110 63 39 35 24 8 357 358 14 29 36 48 79 94 93 85 79 76 76 82 83 72 55 57 56 47 38 37 35 32 30 27 23 22 25 28 28 30 38 45 46 42 42 43 39 37 39 43 49 59 59 44 329 212 165 134 121 117
275 23 53 66 97 109 96 70 58 45 19 348 344 14 30 24 17 41 68 79 82 88 84 72 77 90 86 69 61 59 49 38 35 39 40 38 36 32 30 30 32 32 30 29 31 33 37 41 42 44 48 51 54 60 70 74 69 56 35 75 103 104 107
238 147 78 57 95 116 116 96 80 69 45 356 345 10 28 26 21 32 51 61 66 77 82 74 66 77 87 85 73 64 55 37 31 42 48 44 39 36 35 33 31 32 35 36 36 37 44 51 54 57 61 63 68 75 79 86 95 92 81 77 88 98 106